SCP
0 0 0 0 0 0 0 0 0 0 0 0 0 0 0 0 0 0 0 0 0 0 0 0 0 0 0 0 0 0 0 0 0 0 0 0 0 0 0 0 0 0 0
0 0 0 0 0 0 0 0 0 0 0 0 0 0 0 0 0 0 0 0 0 0 0 0 0 0 0 0 0 0 0 0 0 0 0 0 0 0 0 0 0 0 0
0 0 0 0 0 0 0 0 0 0 0 0 0 0 0 0 0 0 0 0 0 0 0 0 0 0 0 0 0 0 0 0 0 0 0 0 0 0 0 0 0 0 0
0 0 0 0 0 0 0 0 0 0 0 0 0 0 0 0 0 0 0 0 0 0 0 0 0 0 0 0 0 0 0 0 0 0 0 0 0 0 0 0 0 0 0
0 0 0 0 0 0 0 0 0 0 0 0 0 0 0 0 0 0 0 0 0 0 0 0 0 0 0 0 0 0 0 0 0 0 0 0 0 0 0 0 0 0 0
0 0 0 0 0 0 0 0 0 0 0 0 0 0 0 0 0 0 0 0 0 0 0 0 0 0 0 0 0 0 0 0 0 0 0 0 0 0 0 0 0 0 0
0 0 0 0 0 0 0 0 0 0 0 0 0 0 0 0 0 0 0 0 0 0 0 0 0 0 0 0 0 0 0 0 0 0 0 0 0 0 0 0 0 0 0
0 0 0 0 0 0 0 0 0 0 0 0 0 0 0 0 0 0 0 0 0 0 0 0 0 0 0 0 0 0 0 0 0 0 0 0 0 0 0 0 0 0 0
0 0 0 0 0 0 0 0 0 0 0 0 0 0 0 0 0 0 0 0 0 0 0 0 0 0 0 0 0 0 0 0 0 0 0 0 0 0 0 0 0 0 0
0 0 0 0 0 0 0 0 0 0 0 0 0 0 0 0 0 0 0 0 0 0 0 0 0 0 0 0 0 0 0 0 0 0 0 0 0 0 0 0 0 0 0
0 0 0 0 0 0 0 0 0 0 0 0 0 0 0 0 0 0 0 0 0 0 0 0 0 0 0 0 0 0 0 0 0 0 0 0 0 0 0 0 0 0 0
0 0 0 0 0 0 0 0 0 0 0 0 0 0 0 0 0 0 0 0 0 0 0 0 0 0 0 0 0 0 0 0 0 0 0 0 0 0 0 0 0 0 0
0 0 0 0 0 0 0 0 0 0 0 0 0 0 0 0 0 0 0 0 0 0 0 0 0 0 0 0 0 0 0 0 0 0 0 0 0 0 0 0 0 0 0
0 0 0 0 0 0 0 0 0 0 0 0 0 0 0 0 0 0 0 0 0 0 0 0 0 0 0 0 0 0 0 0 0 0 0 0 0 0 0 0 0 0 0
0 0 0 0 0 0 0 0 0 0 0 0 0 0 0 0 0 0 0 0 0 0 0 0 0 0 0 0 0 0 0 0 0 0 0 0 0 0 0 0 0 0 0
0 0 0 0 0 0 0 0 0 0 0 0 0 0 0 0 0 0 0 0 0 0 0 0 0 0 0 0 0 0 0 0 0 0 0 0 0 0 0 0 0 0 0
0 0 0 0 0 0 0 0 0 0 0 0 0 0 0 0 0 0 0 0 0 0 0 0 0 0 0 0 0 0 0 0 0 0 0 0 0 0 0 0 0 0 0
0 0 0 0 0 0 0 0 0 0 0 0 0 0 0 0 0 0 0 0 0 0 0 0 0 0 0 0 0 0 0 0 0 0 0 0 0 0 0 0 0 0 0
0 0 0 0 0 0 0 0 0 -0 -0 0 0 0 0 0 0 0 0 0 0 0 0 0 0 0 0 0 0 0 0 0 0 0 0 0 0 0 0 0 0 0 0
0 0 0 0 0 0 0 0 0 0 0 0 0 0 0 0 0 0 0 0 0 0 0 0 0 0 0 0 0 0 0 0 0 0 0 0 0 0 0 0 0 0 0
0 0 0 0 0 0 0 0 0 0 0 0 -0 -0 0 0 0 0 0 0 0 -0 -0 -0 0 0 0 0 0 0 0 0 0 0 0 0 0 0 0 0 0 0 0
0 0 0 0 0 0 0 0 0 0 0 0 -0 -0 -0 0 0 0 0 0 0 -0 -0 -0 0 0 0 0 0 0 0 0 0 0 0 0 0 0 0 0 0 0 0
0 0 0 0 0 0 0 0 0 0 0 0 0 0 0 0 0 0 0 0 0 -0 -0 0 0 0 0 0 0 0 0 0 0 0 0 0 0 0 0 0 0 0 0
0 0 0 0 0 0 0 0 0 0 0 0 0 0 0 0 0 0 0 0 0 -0 0 0 0 0 0 0 0 0 0 0 0 0 0 0 0 0 0 0 0 0 0
0 0 0 0 0 0 0 0 0 0 0 0 0 0 0 0 0 0 0 0 0 0 0 0 0 0 0 0 0 0 0 0 0 0 0 0 0 0 0 0 0 0 0
0 0 0 0 0 0 0 0 0 0 0 0 0 0 0 0 0 0 0 0 0 0 0 0 0 0 0 0 0 0 0 0 0 0 0 0 0 0 0 0 0 0 0
Wind_Speed
3 2 2 2 1 2 1 0 1 1 1 1 1 1 2 2 1 2 3 3 3 4 4 4 4 4 4 4 4 3 3 2 2 1 1 2 1 2 2 2 2 2 2
3 3 3 3 2 1 1 1 1 1 2 2 2 2 2 2 2 2 2 3 3 4 4 5 4 5 4 4 5 3 2 2 2 2 1 1 2 2 2 2 2 3 2
3 3 2 2 2 2 2 2 2 2 2 2 1 0 0 0 0 1 2 3 3 4 4 4 4 5 5 5 6 5 5 4 3 2 3 3 4 2 2 3 3 2 2
2 2 2 2 2 3 2 2 2 2 1 1 2 2 2 2 3 2 2 3 3 3 4 4 4 5 4 5 6 5 4 4 4 2 2 2 2 2 2 2 2 3 3
3 3 3 3 3 2 2 2 2 2 2 1 2 3 2 3 2 2 2 2 2 3 3 4 4 4 4 4 5 5 5 4 4 4 3 2 1 2 2 3 2 2 3
2 2 2 2 2 2 2 2 2 2 2 1 1 2 3 3 2 2 2 2 2 2 3 4 4 4 4 5 5 5 6 5 5 4 4 4 3 4 3 4 3 3 3
2 2 2 3 3 3 2 2 2 3 3 2 2 2 3 3 3 3 3 3 2 2 3 3 4 4 4 4 4 4 5 5 6 5 4 4 4 3 3 3 3 3 2
3 3 3 3 3 3 3 2 2 3 3 2 2 2 2 2 2 3 3 3 3 3 3 3 3 4 4 5 4 4 4 4 5 5 5 4 4 4 4 4 3 2 2
4 3 3 3 3 3 3 3 3 3 3 3 3 2 2 2 3 3 2 3 3 3 3 3 3 3 4 5 5 4 5 4 4 5 5 4 4 4 4 4 4 4 4
4 4 3 3 3 3 3 3 3 3 4 3 3 3 3 3 3 2 3 3 3 2 2 3 3 3 3 4 4 4 4 4 4 4 5 5 3 3 4 4 4 4 5
5 5 4 4 4 4 3 4 4 4 4 4 3 3 3 3 3 3 3 3 3 3 3 3 3 3 3 3 4 4 4 5 4 4 5 5 4 4 4 4 4 4 4
5 5 4 4 4 4 4 4 4 4 4 4 3 3 3 3 3 3 3 3 3 3 3 3 3 3 3 3 4 4 4 5 5 5 5 5 4 5 4 4 5 5 5
5 5 5 5 5 5 5 4 4 4 4 4 3 3 3 3 3 3 3 3 3 3 3 3 3 3 3 4 4 4 4 5 5 6 6 6 5 5 4 5 5 4 4
5 5 6 6 6 5 5 5 5 4 4 3 3 3 3 3 3 3 3 3 3 3 3 3 3 3 3 3 3 3 4 4 4 5 6 6 7 7 6 5 6 5 4
6 6 7 7 6 5 5 5 4 4 3 3 3 3 3 3 2 2 2 2 3 3 3 3 3 3 3 3 3 3 3 4 4 4 5 6 8 9 8 6 5 5 5
7 8 7 7 6 5 5 5 4 4 3 3 3 3 2 2 2 2 2 2 2 3 2 2 3 3 3 6 6 4 3 3 4 4 4 5 7 9 10 10 9 8 7
8 8 7 7 6 5 5 4 4 4 3 3 3 3 2 2 2 2 2 2 3 2 2 2 3 3 4 6 6 6 3 3 3 4 4 4 5 6 5 7 8 8 10
7 7 7 6 5 4 4 3 3 3 3 3 3 3 2 2 2 2 2 3 3 3 3 3 3 3 5 6 6 6 3 3 3 4 5 5 5 5 6 5 5 5 5
6 6 5 5 4 3 3 2 3 2 2 3 3 3 2 2 2 3 3 3 2 2 2 2 3 3 4 6 6 5 2 2 3 3 3 4 4 7 8 5 5 4 4
5 4 4 4 3 3 2 2 2 2 3 3 3 3 3 3 3 3 3 2 2 2 2 3 3 3 3 5 5 5 2 2 2 2 2 5 5 6 6 5 5 5 4
5 4 4 3 3 3 2 2 3 4 4 4 3 3 3 3 3 3 3 2 2 2 2 3 3 3 3 5 5 5 2 2 2 2 2 2 5 6 5 4 3 4 3
5 5 4 4 4 3 2 2 3 4 4 3 3 3 3 3 2 2 2 2 1 2 2 2 3 2 3 4 5 6 5 3 2 2 2 3 4 4 3 2 3 3 1
5 4 4 4 4 3 2 3 4 4 3 3 3 3 3 2 2 2 2 2 2 2 2 2 2 3 2 2 5 6 5 4 3 2 3 3 2 2 1 1 2 2 1
4 4 4 4 5 4 3 3 4 4 3 3 3 3 3 3 2 2 2 2 2 2 2 2 2 3 2 2 2 2 2 3 2 2 1 1 1 1 0 1 0 1 2
4 3 3 4 5 5 5 5 4 3 3 3 3 3 3 2 2 2 2 2 3 3 3 3 3 3 3 4 5 3 2 2 1 1 0 0 0 0 1 1 1 1 1
4 4 4 5 5 5 6 5 4 3 2 3 3 2 2 2 2 2 3 4 4 5 6 6 5 4 5 6 5 5 4 3 1 0 0 0 1 1 1 1 1 1 1
Wind_Direction
294 335 356 349 19 22 18 319 194 221 159 166 195 216 225 227 225 217 203 197 196 190 183 188 183 183 189 192 183 178 180 180 144 109 349 317 273 241 233 221 210 218 220
333 348 0 6 360 348 338 340 267 239 210 206 199 203 217 220 216 223 221 207 199 200 197 191 190 192 190 189 188 174 171 174 164 146 133 287 301 268 238 222 216 221 215
287 314 335 341 344 334 310 304 279 257 240 213 180 113 70 26 265 232 227 229 213 204 203 201 196 195 193 197 194 187 180 187 194 179 164 175 224 271 265 230 224 219 217
273 285 303 319 319 302 299 294 286 282 268 215 179 182 205 218 234 237 235 240 224 216 206 201 199 198 198 198 199 195 189 179 193 204 207 194 175 186 262 276 244 229 230
259 267 275 282 301 307 309 308 323 314 294 243 211 202 224 235 244 244 241 245 238 224 212 209 203 201 204 204 203 200 196 194 196 191 183 190 203 194 199 258 273 267 242
278 276 296 315 316 315 321 336 346 320 310 280 234 219 226 237 242 249 237 243 248 243 227 217 209 207 208 206 207 205 204 206 202 202 195 185 185 193 195 225 245 259 259
300 309 322 325 321 323 328 332 329 317 313 296 271 247 239 236 234 237 230 235 246 246 242 231 218 213 212 210 206 206 208 207 206 208 213 212 210 189 188 204 228 254 273
303 302 302 307 312 316 326 321 309 308 307 293 281 269 251 243 240 242 243 234 238 240 243 236 231 226 216 211 205 209 214 207 208 216 214 219 216 202 197 192 192 242 268
307 308 314 314 311 317 320 308 301 304 302 290 279 276 267 251 248 250 252 247 252 249 236 226 224 229 221 213 204 209 213 207 209 213 213 218 217 208 210 201 193 200 241
312 317 315 312 310 310 310 311 306 298 297 292 280 275 268 250 244 247 256 258 261 259 241 236 227 224 221 215 212 214 209 208 214 211 212 220 217 211 212 211 209 205 215
313 313 314 314 315 316 311 309 312 314 309 298 282 275 274 263 248 244 252 253 255 252 240 235 235 232 227 220 216 215 208 211 217 214 214 222 218 217 212 210 211 212 210
313 314 315 319 319 314 312 310 312 310 300 291 280 276 277 273 263 261 263 262 256 255 251 241 235 239 239 232 220 218 218 218 220 222 221 226 223 224 216 210 215 218 214
321 324 325 322 317 312 310 308 306 302 302 297 283 281 283 277 272 271 270 268 264 264 262 247 241 240 240 243 226 214 222 227 227 224 221 222 216 231 225 216 218 218 220
312 316 317 316 314 313 311 308 305 303 303 298 285 273 267 266 270 272 269 267 266 260 256 251 248 241 237 237 227 225 228 228 235 230 225 223 218 225 222 224 220 213 214
311 311 312 313 314 315 312 311 307 308 308 305 294 281 271 267 273 276 276 276 270 269 261 257 260 251 235 236 227 225 232 232 238 238 233 231 232 232 231 227 217 209 214
302 305 307 310 309 309 311 315 314 314 310 302 298 299 293 279 271 273 275 281 281 278 267 259 257 258 258 261 258 255 234 235 237 245 248 243 241 237 239 238 230 220 217
296 300 303 302 301 304 306 306 306 314 318 310 306 305 294 278 271 275 279 276 273 274 267 262 260 261 263 263 263 266 252 230 237 242 246 250 244 239 229 234 236 234 232
295 295 294 295 295 299 307 306 314 317 314 309 306 305 295 283 278 271 268 270 272 268 266 269 271 271 269 272 270 272 262 239 240 240 240 241 241 233 223 219 227 234 239
290 289 289 291 293 297 303 316 319 316 314 302 298 299 291 287 285 274 268 269 265 269 268 268 268 268 273 279 276 279 257 248 252 250 248 243 240 236 227 218 222 234 244
312 311 317 319 313 311 319 330 315 317 307 299 294 294 286 277 279 279 272 265 257 264 278 282 272 267 272 283 286 288 258 255 263 264 257 254 249 245 231 218 215 227 230
325 333 333 327 318 326 339 316 309 301 298 298 294 292 288 281 278 283 277 270 275 283 280 283 279 270 276 290 295 295 278 259 262 264 267 261 255 250 239 231 220 221 211
333 339 340 334 334 341 344 327 314 310 314 311 308 307 305 298 298 288 291 285 274 281 282 287 293 287 280 294 298 304 298 286 260 261 266 260 259 243 235 241 221 216 202
328 335 336 334 338 344 339 316 311 321 328 330 323 320 316 305 300 292 286 282 264 257 272 275 281 292 291 293 301 306 304 301 288 268 268 272 270 255 235 207 211 206 159
327 332 337 337 333 337 334 314 314 320 324 321 318 318 322 322 320 311 298 284 270 265 265 268 278 283 287 288 288 284 289 294 295 289 283 313 358 338 143 169 151 126 157
326 332 335 332 328 334 333 327 323 327 331 322 317 321 322 320 324 320 304 289 276 267 267 265 263 271 275 283 290 285 277 267 253 272 354 30 35 62 78 103 111 116 123
325 333 336 334 331 334 331 331 330 325 321 319 318 317 318 315 313 318 326 326 311 313 303 290 281 281 282 289 291 293 290 290 268 326 245 228 193 202 201 177 135 116 128